Tracking 25963 objects as of 12-Aug-2022
HD Live streaming from Space Station
objects crossing your sky now

PALAPA 2

Track PALAPA 2 now!
PALAPA 2 is classified as:


NORAD ID: 9862
Int'l Code: 1977-018A
Perigee: 35,831.9 km
Apogee: 35,892.7 km
Inclination: 11.4 °
Period: 1,439.6 minutes
Semi major axis: 42233 km
RCS: 5.6864 m2 (large)
Launch date: March 10, 1977
Source: Indonesia (INDO)
Launch site: AIR FORCE EASTERN TEST RANGE (AFETR)
aabbcc
Your satellite tracking list
Your tracking list is empty




NASA's NSSDC Master Catalog

Two Line Element Set (TLE):
1 09862U 77018A   22222.39841250 -.00000199  00000-0  00000-0 0  9990
2 09862  11.4062 321.2827 0007204 123.4327 109.4918  1.00027673129034
Source of the keplerian elements: AFSPC